Location: Suzhou
(31.3110°N, 120.6180°E)
Time: 13:33:27
(UTC+08:00)

BlueWalker 3 - Visible Passes

Search period start: 04 March 2024 00:00
Search period end: 14 March 2024 00:00
Orbit: 485 x 499 km, 53.2° (Epoch: 03 March)

Date Brightness Start Highest point End Pass type
(mag) Time Alt. Az. Time Alt. Az. Time Alt. Az.
04 Mar 4.1 18:39:18 10° NNE 18:40:15 11° NNE 18:41:11 10° NE visible
04 Mar 4.6 20:15:14 10° NW 20:16:08 17° NW 20:16:08 17° NW visible
05 Mar 3.1 19:51:19 10° NW 19:53:42 37° NW 19:53:42 37° NW visible
06 Mar 1.7 19:27:23 10° NW 19:31:09 79° NE 19:31:23 74° E visible
07 Mar 1.7 19:03:26 10° NW 19:07:12 75° NE 19:09:13 26° SE visible
08 Mar 1.8 18:39:29 10° NW 18:43:14 71° NE 18:46:59 10° SE visible
12 Mar 5.2 18:44:20 10° WSW 18:45:05 10° WSW 18:45:50 10° SW visible
